Ellicott, CO

1:00 AM MDT on June 25, 2017 (GMT -0600)
Ellicott

Weather History for KABH - November, 2012

Change the Weather History Date:

Tuesday, November 13, 2012

  Actual Average (KCOS) Record (KCOS)
Temperature  
Mean Temperature 36 °F -  
Max Temperature 52 °F 51 °F 75 °F (1999)
Min Temperature 21 °F 26 °F -12 °F (1916)
Degree Days  
Heating Degree Days 28    
Moisture  
Dew Point 11 °F    
Average Humidity 43    
Maximum Humidity 85    
Minimum Humidity 16    
Precipitation  
Precipitation 0.00 in - - ()
Sea Level Pressure  
Sea Level Pressure 30.27 in    
Wind  
Wind Speed 8 mph (NE)    
Max Wind Speed 23 mph    
Max Gust Speed 30 mph    
Visibility 10 miles    
Events Rain    
Averages and records for this station are not official NWS values.
T = Trace of Precipitation, MM = Missing Value Source: NWS Daily Summary

Daily Weather History Graph

Daily Weather History Graph

Search for Another Location

Airport or City:

Trip Planner

Search our weather history database for the weather conditions in past years. The results will help you decide how hot, cold, wet, or windy it might be!

Date:

Astronomy

Nov. 13, 2012 Rise Set
Actual Time 6:37 AM MST 4:44 PM MST
Civil Twilight 6:09 AM MST 5:13 PM MST
Nautical Twilight 5:37 AM MST 5:45 PM MST
Astronomical Twilight 5:06 AM MST 6:16 PM MST
Moon 6:18 AM MST (11/13) 4:40 PM MST (11/13)
Length of Visible Light 11h 03m
Length of Day
10h 06m
Waning Crescent, 0% of the Moon is Illuminated
Nov 13
Waning Crescent
Nov 13
New
Nov 20
First Quarter
Nov 28
Full
Dec 6
Last Quarter

Hourly Weather History & Observations

Time (MST) Temp. Windchill Dew Point Humidity Pressure Visibility Wind Dir Wind Speed Gust Speed Precip Events Conditions
12:56 AM 25.0 °F 18.1 °F 1.0 °F 36% 30.26 in 10.0 mi SSE 5.8 mph - 0.00 in   Clear
1:56 AM 28.0 °F - 1.0 °F 31% 30.23 in 10.0 mi Calm Calm - 0.00 in   Clear
2:56 AM 30.0 °F 23.2 °F 1.0 °F 29% 30.20 in 10.0 mi SSW 6.9 mph - 0.00 in   Clear
3:56 AM 28.0 °F 24.2 °F 1.9 °F 33% 30.21 in 10.0 mi NE 3.5 mph - 0.00 in   Clear
4:56 AM 28.0 °F - 3.9 °F 36% 30.25 in 10.0 mi Calm Calm - 0.00 in   Partly Cloudy
5:56 AM 30.9 °F - 7.0 °F 37% 30.28 in 10.0 mi Calm Calm - 0.00 in   Scattered Clouds
6:56 AM 32.0 °F 26.4 °F 10.9 °F 42% 30.28 in 10.0 mi NNW 5.8 mph - 0.00 in Rain Light Rain
7:56 AM 44.1 °F 37.1 °F 10.0 °F 25% 30.24 in 10.0 mi North 15.0 mph 19.6 mph 0.00 in Rain Light Rain
8:56 AM 48.0 °F - 3.9 °F 16% 30.23 in 10.0 mi North 20.7 mph 26.5 mph 0.00 in Rain Light Rain
9:56 AM 48.9 °F - 7.0 °F 18% 30.22 in 10.0 mi North 23.0 mph 28.8 mph 0.00 in   Clear
10:56 AM 52.0 °F - 10.0 °F 19% 30.19 in - North 17.3 mph 26.5 mph N/A   Clear
11:56 AM 51.1 °F - 8.1 °F 18% 30.20 in - North 20.7 mph 26.5 mph N/A   Clear
12:56 PM 50.0 °F - 8.1 °F 18% 30.21 in - NE 18.4 mph 29.9 mph N/A   Clear
1:56 PM 48.9 °F - 14.0 °F 25% 30.20 in - ENE 18.4 mph 24.2 mph N/A   Clear
2:56 PM 48.0 °F - 16.0 °F 28% 30.22 in - ENE 17.3 mph - N/A   Clear
3:56 PM 46.0 °F 39.9 °F 15.1 °F 29% 30.25 in - NE 13.8 mph - N/A   Clear
4:56 PM 37.9 °F - 19.9 °F 48% 30.31 in 10.0 mi North - - N/A   Clear
5:56 PM 32.0 °F 25.6 °F 21.0 °F 64% 30.34 in 10.0 mi ENE 6.9 mph - N/A   Clear
6:56 PM 30.0 °F - 19.9 °F 66% 30.38 in 10.0 mi Calm Calm - 0.00 in   Clear
7:56 PM 28.9 °F 19.2 °F 21.0 °F 72% 30.33 in 10.0 mi ENE 11.5 mph - 0.00 in   Clear
8:56 PM 23.0 °F - 18.0 °F 81% 30.38 in 10.0 mi Calm Calm - 0.00 in   Clear
9:56 PM 21.9 °F - 17.1 °F 82% 30.37 in 10.0 mi Calm Calm - 0.00 in   Clear
10:56 PM 21.0 °F - 17.1 °F 85% 30.35 in 10.0 mi Calm Calm - 0.00 in   Clear
11:56 PM 21.9 °F - 18.0 °F 85% 30.34 in 10.0 mi Calm Calm - 0.00 in   Clear